Darstellungsparameter: Aktuell verwendete Einstellungen:
Skalierung der Graphiken ... ?
xyx+y,   Skalierungsfaktor:      Skalierung: Modus: x, Faktor: 1
Darstellungszeitraum ... ?
Vom - - bis: - -   Zeitraum: 17.09.2020 - 17.09.2020
Min/Max/Avg-Anzeige ... ?
Zeige MMA aktuell
Zeige MMA Monat
Zeige MMA alles
Zeige --A aktuell
Zeige --A Monat
Zeige --A alles
Keine MMA-Anzeige
MMA:
Average (ber die Originaldaten)
MMA-Basis: 17.09.2020 - 17.09.2020
Quicknavigation für Darstellung... ?
Tage:      1T, 2T, 3T, 5T -1T -2T -3T -5T +1T +2T +3T +5T
Wochen: 1W, 2W, 3W -1W -2W -3W +1W +2W +3W
Monate: 1M, 3M, 6M -1M -3M -6M +1M +3M +6M
Jahre:    1J, 3J, 5J, 10J -1J -3J -5J -10J +1J +3J +5J +10J
Nutze für die Darstellung ... ?
Originaldaten oder Mittelwerte auf ...
Stundenbasis Tagesbasis Wochenbasis
Monatsbasis Jahresbasis      Datenbasis: Original-Daten
Darstellen als:
Statistik (Auto) Statistik J:M      Darstellung:
Zur Graphik,    zurück zur Übersicht aller Sensoren.
 
Tabellarische Datenbersicht: ?
 
Sensor: Nr:Datum:Temp:Abs-Feuchte:Windchill:Wind:
Aussen-T/F 1 17-09-2020 00:00:00 20.7 C 13.14 g/m*3 20.7 C 6.4 km/h
2 17-09-2020 00:05:00 20.8 C 13.4 g/m*3 20.8 C 8.1 km/h
3 17-09-2020 00:10:00 20.8 C 13.22 g/m*3 20.8 C 4.8 km/h
4 17-09-2020 00:15:00 20.8 C 13.22 g/m*3 20.8 C 9.7 km/h
5 17-09-2020 00:20:00 20.8 C 13.22 g/m*3 20.8 C 6.4 km/h
6 17-09-2020 00:25:00 20.8 C 13.22 g/m*3 20.8 C 6.4 km/h
7 17-09-2020 00:30:00 20.8 C 13.22 g/m*3 20.8 C 11.3 km/h
8 17-09-2020 00:35:00 20.8 C 13.04 g/m*3 20.8 C 12.9 km/h
9 17-09-2020 00:40:00 20.7 C 12.96 g/m*3 20.7 C 9.7 km/h
10 17-09-2020 00:45:00 20.7 C 12.96 g/m*3 20.7 C 9.7 km/h
11 17-09-2020 00:50:00 20.7 C 12.96 g/m*3 20.7 C 3.2 km/h
12 17-09-2020 00:55:00 20.6 C 12.89 g/m*3 20.6 C 8.1 km/h
13 17-09-2020 01:00:00 20.6 C 12.89 g/m*3 20.6 C 6.4 km/h
14 17-09-2020 01:05:00 20.4 C 12.74 g/m*3 20.4 C 11.3 km/h
15 17-09-2020 01:10:00 20.4 C 12.74 g/m*3 20.4 C 9.7 km/h
16 17-09-2020 01:15:00 20.3 C 12.66 g/m*3 20.3 C 3.2 km/h
17 17-09-2020 01:20:00 20.2 C 12.59 g/m*3 20.2 C 4.8 km/h
18 17-09-2020 01:25:00 20.2 C 12.41 g/m*3 20.2 C 8.1 km/h
19 17-09-2020 01:30:00 20.1 C 12.52 g/m*3 20.1 C 9.7 km/h
20 17-09-2020 01:35:00 19.9 C 12.37 g/m*3 19.9 C 8.1 km/h
21 17-09-2020 01:40:00 19.9 C 12.37 g/m*3 19.9 C 8.1 km/h
22 17-09-2020 01:45:00 19.8 C 12.3 g/m*3 19.8 C 6.4 km/h
23 17-09-2020 01:50:00 19.7 C 12.23 g/m*3 19.7 C 3.2 km/h
24 17-09-2020 01:55:00 19.6 C 12.32 g/m*3 19.6 C 1.6 km/h
25 17-09-2020 02:00:00 19.4 C 12.18 g/m*3 19.4 C 6.4 km/h
Sensor: Nr:Datum:Temp:Abs-Feuchte:Windchill:Wind:
Aussen-T/F 26 17-09-2020 02:05:00 19.2 C 12.2 g/m*3 19.2 C 3.2 km/h
27 17-09-2020 02:10:00 19.1 C 12.13 g/m*3 19.1 C 4.8 km/h
28 17-09-2020 02:15:00 18.9 C 12.15 g/m*3 18.9 C 6.4 km/h
29 17-09-2020 02:20:00 18.9 C 12.15 g/m*3 18.9 C 8.1 km/h
30 17-09-2020 02:25:00 18.8 C 12.08 g/m*3 18.8 C 9.7 km/h
31 17-09-2020 02:30:00 18.7 C 12.01 g/m*3 18.7 C 9.7 km/h
32 17-09-2020 02:35:00 18.6 C 12.1 g/m*3 18.6 C 8.1 km/h
33 17-09-2020 02:40:00 18.5 C 12.02 g/m*3 18.5 C 1.6 km/h
34 17-09-2020 02:45:00 18.4 C 11.95 g/m*3 18.4 C 1.6 km/h
35 17-09-2020 02:50:00 18.3 C 11.88 g/m*3 18.3 C 0 km/h
36 17-09-2020 02:55:00 18.2 C 11.97 g/m*3 18.2 C 3.2 km/h
37 17-09-2020 03:00:00 18 C 11.83 g/m*3 18 C 0 km/h
38 17-09-2020 03:05:00 17.8 C 11.84 g/m*3 17.8 C 1.6 km/h
39 17-09-2020 03:10:00 17.7 C 11.77 g/m*3 17.7 C 1.6 km/h
40 17-09-2020 03:15:00 17.5 C 11.78 g/m*3 17.5 C 3.2 km/h
41 17-09-2020 03:20:00 17.3 C 11.64 g/m*3 17.3 C 3.2 km/h
42 17-09-2020 03:25:00 17.2 C 11.72 g/m*3 17.2 C 1.6 km/h
43 17-09-2020 03:30:00 17.1 C 11.79 g/m*3 17.1 C 1.6 km/h
44 17-09-2020 03:35:00 17 C 11.87 g/m*3 17 C 4.8 km/h
45 17-09-2020 03:40:00 17 C 11.87 g/m*3 17 C 1.6 km/h
46 17-09-2020 03:45:00 17 C 11.87 g/m*3 17 C 4.8 km/h
47 17-09-2020 03:50:00 17.1 C 11.94 g/m*3 17.1 C 4.8 km/h
48 17-09-2020 03:55:00 17.1 C 11.94 g/m*3 17.1 C 4.8 km/h
49 17-09-2020 04:00:00 17.1 C 11.94 g/m*3 17.1 C 8.1 km/h
50 17-09-2020 04:05:00 17.2 C 12.01 g/m*3 17.2 C 6.4 km/h
Sensor: Nr:Datum:Temp:Abs-Feuchte:Windchill:Wind:
Aussen-T/F 51 17-09-2020 04:10:00 17.3 C 12.08 g/m*3 17.3 C 6.4 km/h
52 17-09-2020 04:15:00 17.3 C 11.93 g/m*3 17.3 C 9.7 km/h
53 17-09-2020 04:20:00 17.4 C 12 g/m*3 17.4 C 11.3 km/h
54 17-09-2020 04:25:00 17.4 C 12 g/m*3 17.4 C 4.8 km/h
55 17-09-2020 04:30:00 17.4 C 12 g/m*3 17.4 C 8.1 km/h
56 17-09-2020 04:35:00 17.5 C 12.08 g/m*3 17.5 C 8.1 km/h
57 17-09-2020 04:40:00 17.5 C 12.08 g/m*3 17.5 C 8.1 km/h
58 17-09-2020 04:45:00 17.5 C 11.93 g/m*3 17.5 C 16.1 km/h
59 17-09-2020 04:50:00 17.4 C 11.86 g/m*3 17.4 C 9.7 km/h
60 17-09-2020 04:55:00 17.4 C 11.86 g/m*3 17.4 C 8.1 km/h
61 17-09-2020 05:00:00 17.3 C 11.79 g/m*3 17.3 C 9.7 km/h
62 17-09-2020 05:05:00 17.3 C 11.79 g/m*3 17.3 C 6.4 km/h
63 17-09-2020 05:10:00 17.2 C 11.72 g/m*3 17.2 C 8.1 km/h
64 17-09-2020 05:15:00 17.1 C 11.65 g/m*3 17.1 C 6.4 km/h
65 17-09-2020 05:20:00 17.1 C 11.79 g/m*3 17.1 C 1.6 km/h
66 17-09-2020 05:25:00 17 C 11.72 g/m*3 17 C 6.4 km/h
67 17-09-2020 05:30:00 17 C 11.72 g/m*3 17 C 4.8 km/h
68 17-09-2020 05:35:00 17.1 C 11.79 g/m*3 17.1 C 12.9 km/h
69 17-09-2020 05:40:00 17.1 C 11.65 g/m*3 17.1 C 11.3 km/h
70 17-09-2020 05:45:00 17.1 C 11.65 g/m*3 17.1 C 8.1 km/h
71 17-09-2020 05:50:00 17.1 C 11.65 g/m*3 17.1 C 6.4 km/h
72 17-09-2020 05:55:00 17.1 C 11.65 g/m*3 17.1 C 6.4 km/h
73 17-09-2020 06:00:00 17 C 11.58 g/m*3 17 C 6.4 km/h
74 17-09-2020 06:05:00 17 C 11.58 g/m*3 17 C 6.4 km/h
75 17-09-2020 06:10:00 16.9 C 11.36 g/m*3 16.9 C 6.4 km/h
Sensor: Nr:Datum:Temp:Abs-Feuchte:Windchill:Wind:
Aussen-T/F 76 17-09-2020 06:15:00 16.9 C 11.51 g/m*3 16.9 C 3.2 km/h
77 17-09-2020 06:20:00 16.9 C 11.51 g/m*3 16.9 C 8.1 km/h
78 17-09-2020 06:25:00 16.9 C 11.36 g/m*3 16.9 C 4.8 km/h
79 17-09-2020 06:30:00 16.8 C 11.29 g/m*3 16.8 C 6.4 km/h
80 17-09-2020 06:35:00 16.8 C 11.44 g/m*3 16.8 C 8.1 km/h
81 17-09-2020 06:40:00 16.8 C 11.29 g/m*3 16.8 C 8.1 km/h
82 17-09-2020 06:45:00 16.8 C 11.44 g/m*3 16.8 C 6.4 km/h
83 17-09-2020 06:50:00 16.8 C 11.44 g/m*3 16.8 C 4.8 km/h
84 17-09-2020 06:55:00 16.8 C 11.44 g/m*3 16.8 C 4.8 km/h
85 17-09-2020 07:00:00 16.8 C 11.44 g/m*3 16.8 C 8.1 km/h
86 17-09-2020 07:05:00 16.8 C 11.44 g/m*3 16.8 C 9.7 km/h
87 17-09-2020 07:10:00 16.8 C 11.44 g/m*3 16.8 C 6.4 km/h
88 17-09-2020 07:15:00 16.8 C 11.44 g/m*3 16.8 C 8.1 km/h
89 17-09-2020 07:20:00 16.8 C 11.44 g/m*3 16.8 C 6.4 km/h
90 17-09-2020 07:25:00 16.7 C 11.37 g/m*3 16.7 C 6.4 km/h
91 17-09-2020 07:30:00 16.6 C 11.3 g/m*3 16.6 C 4.8 km/h
92 17-09-2020 07:35:00 16.6 C 11.3 g/m*3 16.6 C 4.8 km/h
93 17-09-2020 07:40:00 16.5 C 11.37 g/m*3 16.5 C 4.8 km/h
94 17-09-2020 07:45:00 16.4 C 11.31 g/m*3 16.4 C 1.6 km/h
95 17-09-2020 07:50:00 16.4 C 11.17 g/m*3 16.4 C 4.8 km/h
96 17-09-2020 07:55:00 16.4 C 11.31 g/m*3 16.4 C 4.8 km/h
97 17-09-2020 08:00:00 16.3 C 11.24 g/m*3 16.3 C 6.4 km/h
98 17-09-2020 08:05:00 16.3 C 11.1 g/m*3 16.3 C 8.1 km/h
99 17-09-2020 08:10:00 16.3 C 11.1 g/m*3 16.3 C 8.1 km/h
100 17-09-2020 08:15:00 16.3 C 11.1 g/m*3 16.3 C 8.1 km/h
Sensor: Nr:Datum:Temp:Abs-Feuchte:Windchill:Wind:
Aussen-T/F 101 17-09-2020 08:20:00 16.2 C 11.03 g/m*3 16.2 C 8.1 km/h
102 17-09-2020 08:25:00 16.2 C 11.03 g/m*3 16.2 C 9.7 km/h
103 17-09-2020 08:30:00 16.1 C 10.97 g/m*3 16.1 C 9.7 km/h
104 17-09-2020 08:35:00 16 C 10.76 g/m*3 16 C 9.7 km/h
105 17-09-2020 08:40:00 15.9 C 10.7 g/m*3 15.9 C 11.3 km/h
106 17-09-2020 08:45:00 15.9 C 10.56 g/m*3 15.9 C 14.5 km/h
107 17-09-2020 08:50:00 15.8 C 10.63 g/m*3 15.8 C 9.7 km/h
108 17-09-2020 08:55:00 15.7 C 10.44 g/m*3 15.7 C 9.7 km/h
109 17-09-2020 09:00:00 15.7 C 10.44 g/m*3 15.7 C 11.3 km/h
110 17-09-2020 09:05:00 15.6 C 10.51 g/m*3 15.6 C 9.7 km/h
111 17-09-2020 09:10:00 15.6 C 10.51 g/m*3 15.6 C 6.4 km/h
112 17-09-2020 09:15:00 15.7 C 10.57 g/m*3 15.7 C 6.4 km/h
113 17-09-2020 09:20:00 15.7 C 10.57 g/m*3 15.7 C 8.1 km/h
114 17-09-2020 09:25:00 15.7 C 10.44 g/m*3 15.7 C 9.7 km/h
115 17-09-2020 09:30:00 15.7 C 10.44 g/m*3 15.7 C 9.7 km/h
116 17-09-2020 09:35:00 15.7 C 10.44 g/m*3 15.7 C 9.7 km/h
117 17-09-2020 09:40:00 15.7 C 10.44 g/m*3 15.7 C 8.1 km/h
118 17-09-2020 09:45:00 15.6 C 10.37 g/m*3 15.6 C 8.1 km/h
119 17-09-2020 09:50:00 15.6 C 10.37 g/m*3 15.6 C 6.4 km/h
120 17-09-2020 09:55:00 15.7 C 10.44 g/m*3 15.7 C 3.2 km/h
121 17-09-2020 10:00:00 15.8 C 10.5 g/m*3 15.8 C 1.6 km/h
122 17-09-2020 10:05:00 15.9 C 10.56 g/m*3 15.9 C 8.1 km/h
123 17-09-2020 10:10:00 16.1 C 10.28 g/m*3 16.1 C 11.3 km/h
124 17-09-2020 10:15:00 16.2 C 9.52 g/m*3 16.2 C 11.3 km/h
125 17-09-2020 10:20:00 16.1 C 9.18 g/m*3 16.1 C 8.1 km/h
Sensor: Nr:Datum:Temp:Abs-Feuchte:Windchill:Wind:
Aussen-T/F 126 17-09-2020 10:25:00 16 C 9.13 g/m*3 16 C 6.4 km/h
127 17-09-2020 10:30:00 16 C 9.13 g/m*3 16 C 6.4 km/h
128 17-09-2020 10:35:00 16.1 C 9.32 g/m*3 16.1 C 3.2 km/h
129 17-09-2020 10:40:00 16.1 C 9.18 g/m*3 16.1 C 8.1 km/h
130 17-09-2020 10:45:00 16.1 C 9.05 g/m*3 16.1 C 8.1 km/h
131 17-09-2020 10:50:00 16.1 C 9.18 g/m*3 16.1 C 4.8 km/h
132 17-09-2020 10:55:00 16.1 C 9.18 g/m*3 16.1 C 3.2 km/h
133 17-09-2020 11:00:00 16.1 C 9.18 g/m*3 16.1 C 4.8 km/h
134 17-09-2020 11:05:00 16.2 C 9.24 g/m*3 16.2 C 11.3 km/h
135 17-09-2020 11:10:00 16.2 C 9.1 g/m*3 16.2 C 12.9 km/h
136 17-09-2020 11:15:00 16.3 C 9.16 g/m*3 16.3 C 12.9 km/h
137 17-09-2020 11:20:00 16.4 C 9.07 g/m*3 16.4 C 12.9 km/h
138 17-09-2020 11:25:00 16.4 C 9.07 g/m*3 16.4 C 14.5 km/h
139 17-09-2020 11:30:00 16.4 C 8.93 g/m*3 16.4 C 8.1 km/h
140 17-09-2020 11:35:00 16.4 C 9.07 g/m*3 16.4 C 11.3 km/h
141 17-09-2020 11:40:00 16.4 C 9.07 g/m*3 16.4 C 6.4 km/h
142 17-09-2020 11:45:00 16.6 C 9.04 g/m*3 16.6 C 11.3 km/h
143 17-09-2020 11:50:00 16.6 C 9.18 g/m*3 16.6 C 9.7 km/h
144 17-09-2020 11:55:00 16.8 C 9.15 g/m*3 16.8 C 9.7 km/h
145 17-09-2020 12:00:00 16.9 C 9.06 g/m*3 16.9 C 14.5 km/h
146 17-09-2020 12:05:00 17.1 C 9.17 g/m*3 17.1 C 9.7 km/h
147 17-09-2020 12:10:00 17.2 C 9.08 g/m*3 17.2 C 12.9 km/h
148 17-09-2020 12:15:00 17.3 C 9.28 g/m*3 17.3 C 12.9 km/h
149 17-09-2020 12:20:00 17.6 C 9.15 g/m*3 17.6 C 9.7 km/h
150 17-09-2020 12:25:00 17.6 C 9.15 g/m*3 17.6 C 9.7 km/h
Sensor: Nr:Datum:Temp:Abs-Feuchte:Windchill:Wind:
Aussen-T/F 151 17-09-2020 12:30:00 17.6 C 9.3 g/m*3 17.6 C 11.3 km/h
152 17-09-2020 12:35:00 17.7 C 9.2 g/m*3 17.7 C 12.9 km/h
153 17-09-2020 12:40:00 17.7 C 9.2 g/m*3 17.7 C 14.5 km/h
154 17-09-2020 12:45:00 17.9 C 9.16 g/m*3 17.9 C 14.5 km/h
155 17-09-2020 12:50:00 18.1 C 9.12 g/m*3 18.1 C 16.1 km/h
156 17-09-2020 12:55:00 18.2 C 9.01 g/m*3 18.2 C 14.5 km/h
157 17-09-2020 13:00:00 18.3 C 9.07 g/m*3 18.3 C 17.7 km/h
158 17-09-2020 13:05:00 18.4 C 9.12 g/m*3 18.4 C 12.9 km/h
159 17-09-2020 13:10:00 18.5 C 9.18 g/m*3 18.5 C 9.7 km/h
160 17-09-2020 13:15:00 18.6 C 8.91 g/m*3 18.6 C 12.9 km/h
161 17-09-2020 13:20:00 18.6 C 8.75 g/m*3 18.6 C 14.5 km/h
162 17-09-2020 13:25:00 18.7 C 8.81 g/m*3 18.7 C 16.1 km/h
163 17-09-2020 13:30:00 18.8 C 8.86 g/m*3 18.8 C 12.9 km/h
164 17-09-2020 13:35:00 18.9 C 8.42 g/m*3 18.9 C 17.7 km/h
165 17-09-2020 13:40:00 18.9 C 8.42 g/m*3 18.9 C 12.9 km/h
166 17-09-2020 13:45:00 19.2 C 8.57 g/m*3 19.2 C 12.9 km/h
167 17-09-2020 13:50:00 19.4 C 8.51 g/m*3 19.4 C 16.1 km/h
168 17-09-2020 13:55:00 19.5 C 8.22 g/m*3 19.5 C 14.5 km/h
169 17-09-2020 14:00:00 19.6 C 8.27 g/m*3 19.6 C 12.9 km/h
170 17-09-2020 14:05:00 19.7 C 8.15 g/m*3 19.7 C 12.9 km/h
171 17-09-2020 14:10:00 19.9 C 8.25 g/m*3 19.9 C 14.5 km/h
172 17-09-2020 14:15:00 20.1 C 8.34 g/m*3 20.1 C 14.5 km/h
173 17-09-2020 14:20:00 20.1 C 8.17 g/m*3 20.1 C 16.1 km/h
174 17-09-2020 14:25:00 20.2 C 7.87 g/m*3 20.2 C 17.7 km/h
175 17-09-2020 14:30:00 20.3 C 7.74 g/m*3 20.3 C 14.5 km/h
Sensor: Nr:Datum:Temp:Abs-Feuchte:Windchill:Wind:
Aussen-T/F 176 17-09-2020 14:35:00 20.4 C 7.61 g/m*3 20.4 C 16.1 km/h
177 17-09-2020 14:40:00 20.4 C 7.61 g/m*3 20.4 C 14.5 km/h
178 17-09-2020 14:45:00 20.4 C 7.78 g/m*3 20.4 C 9.7 km/h
179 17-09-2020 14:50:00 20.4 C 7.61 g/m*3 20.4 C 9.7 km/h
180 17-09-2020 14:55:00 20.4 C 7.78 g/m*3 20.4 C 6.4 km/h
181 17-09-2020 15:00:00 20.6 C 7.87 g/m*3 20.6 C 11.3 km/h
182 17-09-2020 15:05:00 20.6 C 7.87 g/m*3 20.6 C 12.9 km/h
183 17-09-2020 15:10:00 20.7 C 7.92 g/m*3 20.7 C 9.7 km/h
184 17-09-2020 15:15:00 20.8 C 7.6 g/m*3 20.8 C 12.9 km/h
185 17-09-2020 15:20:00 20.8 C 7.6 g/m*3 20.8 C 12.9 km/h
186 17-09-2020 15:25:00 20.8 C 7.6 g/m*3 20.8 C 14.5 km/h
187 17-09-2020 15:30:00 20.9 C 7.47 g/m*3 20.9 C 17.7 km/h
188 17-09-2020 15:35:00 20.9 C 7.65 g/m*3 20.9 C 12.9 km/h
189 17-09-2020 15:40:00 21.1 C 7.55 g/m*3 21.1 C 9.7 km/h
190 17-09-2020 15:45:00 21.2 C 7.41 g/m*3 21.2 C 12.9 km/h
191 17-09-2020 15:50:00 21.3 C 7.64 g/m*3 21.3 C 11.3 km/h
192 17-09-2020 15:55:00 21.3 C 7.46 g/m*3 21.3 C 11.3 km/h
193 17-09-2020 16:00:00 21.3 C 7.27 g/m*3 21.3 C 11.3 km/h
194 17-09-2020 16:05:00 21.4 C 7.31 g/m*3 21.4 C 12.9 km/h
195 17-09-2020 16:10:00 21.5 C 7.35 g/m*3 21.5 C 17.7 km/h
196 17-09-2020 16:15:00 21.4 C 7.12 g/m*3 21.4 C 17.7 km/h
197 17-09-2020 16:20:00 21.6 C 7.21 g/m*3 21.6 C 20.9 km/h
198 17-09-2020 16:25:00 21.6 C 7.21 g/m*3 21.6 C 14.5 km/h
199 17-09-2020 16:30:00 21.6 C 7.02 g/m*3 21.6 C 12.9 km/h
200 17-09-2020 16:35:00 21.7 C 7.25 g/m*3 21.7 C 14.5 km/h
Sensor: Nr:Datum:Temp:Abs-Feuchte:Windchill:Wind:
Aussen-T/F 201 17-09-2020 16:40:00 21.8 C 7.29 g/m*3 21.8 C 16.1 km/h
202 17-09-2020 16:45:00 21.8 C 7.29 g/m*3 21.8 C 14.5 km/h
203 17-09-2020 16:50:00 21.8 C 7.48 g/m*3 21.8 C 9.7 km/h
204 17-09-2020 16:55:00 21.9 C 7.53 g/m*3 21.9 C 12.9 km/h
205 17-09-2020 17:00:00 21.9 C 7.33 g/m*3 21.9 C 16.1 km/h
206 17-09-2020 17:05:00 21.9 C 6.95 g/m*3 21.9 C 16.1 km/h
207 17-09-2020 17:10:00 22 C 6.99 g/m*3 22 C 17.7 km/h
208 17-09-2020 17:15:00 22.1 C 7.03 g/m*3 22.1 C 16.1 km/h
209 17-09-2020 17:20:00 22.2 C 7.26 g/m*3 22.2 C 17.7 km/h
210 17-09-2020 17:25:00 22.2 C 7.46 g/m*3 22.2 C 14.5 km/h
211 17-09-2020 17:30:00 22.2 C 7.66 g/m*3 22.2 C 12.9 km/h
212 17-09-2020 17:35:00 22.3 C 7.7 g/m*3 22.3 C 11.3 km/h
213 17-09-2020 17:40:00 22.3 C 7.5 g/m*3 22.3 C 14.5 km/h
214 17-09-2020 17:45:00 22.1 C 7.61 g/m*3 22.1 C 16.1 km/h
215 17-09-2020 17:50:00 22 C 7.38 g/m*3 22 C 16.1 km/h
216 17-09-2020 17:55:00 22.1 C 7.42 g/m*3 22.1 C 14.5 km/h
217 17-09-2020 18:00:00 22.1 C 7.42 g/m*3 22.1 C 14.5 km/h
218 17-09-2020 18:05:00 21.9 C 7.53 g/m*3 21.9 C 17.7 km/h
219 17-09-2020 18:10:00 21.9 C 7.53 g/m*3 21.9 C 14.5 km/h
220 17-09-2020 18:15:00 21.9 C 7.33 g/m*3 21.9 C 12.9 km/h
221 17-09-2020 18:20:00 22 C 7.57 g/m*3 22 C 11.3 km/h
222 17-09-2020 18:25:00 22.1 C 7.81 g/m*3 22.1 C 4.8 km/h
223 17-09-2020 18:30:00 22.2 C 7.66 g/m*3 22.2 C 9.7 km/h
224 17-09-2020 18:35:00 21.9 C 7.72 g/m*3 21.9 C 12.9 km/h
225 17-09-2020 18:40:00 21.7 C 7.44 g/m*3 21.7 C 14.5 km/h
Sensor: Nr:Datum:Temp:Abs-Feuchte:Windchill:Wind:
Aussen-T/F 226 17-09-2020 18:45:00 21.5 C 7.92 g/m*3 21.5 C 6.4 km/h
227 17-09-2020 18:50:00 21.4 C 7.69 g/m*3 21.4 C 3.2 km/h
228 17-09-2020 18:55:00 21.4 C 7.87 g/m*3 21.4 C 1.6 km/h
229 17-09-2020 19:00:00 21.3 C 7.64 g/m*3 21.3 C 6.4 km/h
230 17-09-2020 19:05:00 21.2 C 7.6 g/m*3 21.2 C 8.1 km/h
231 17-09-2020 19:10:00 20.9 C 7.83 g/m*3 20.9 C 3.2 km/h
232 17-09-2020 19:15:00 20.7 C 7.92 g/m*3 20.7 C 1.6 km/h
233 17-09-2020 19:20:00 20.4 C 7.96 g/m*3 20.4 C 1.6 km/h
234 17-09-2020 19:25:00 20 C 8.12 g/m*3 20 C 0 km/h
235 17-09-2020 19:30:00 19.6 C 8.1 g/m*3 19.6 C 0 km/h
236 17-09-2020 19:35:00 19.1 C 8.03 g/m*3 19.1 C 3.2 km/h
237 17-09-2020 19:40:00 18.6 C 8.12 g/m*3 18.6 C 1.6 km/h
238 17-09-2020 19:45:00 18.1 C 8.03 g/m*3 18.1 C 0 km/h
239 17-09-2020 19:50:00 17.7 C 8.15 g/m*3 17.7 C 0 km/h
240 17-09-2020 19:55:00 17.3 C 8.1 g/m*3 17.3 C 3.2 km/h
241 17-09-2020 20:00:00 16.9 C 8.05 g/m*3 16.9 C 3.2 km/h
242 17-09-2020 20:05:00 16.7 C 8.1 g/m*3 16.7 C 1.6 km/h
243 17-09-2020 20:10:00 16.4 C 8.1 g/m*3 16.4 C 1.6 km/h
244 17-09-2020 20:15:00 16.2 C 8 g/m*3 16.2 C 1.6 km/h
245 17-09-2020 20:20:00 16 C 8.04 g/m*3 16 C 0 km/h
246 17-09-2020 20:25:00 15.9 C 8.13 g/m*3 15.9 C 0 km/h
247 17-09-2020 20:30:00 15.7 C 8.03 g/m*3 15.7 C 0 km/h
248 17-09-2020 20:35:00 15.6 C 8.11 g/m*3 15.6 C 0 km/h
249 17-09-2020 20:40:00 15.5 C 8.06 g/m*3 15.5 C 0 km/h
250 17-09-2020 20:45:00 15.4 C 8.01 g/m*3 15.4 C 8.1 km/h
Sensor: Nr:Datum:Temp:Abs-Feuchte:Windchill:Wind:
Aussen-T/F 251 17-09-2020 20:50:00 15.4 C 8.15 g/m*3 15.4 C 0 km/h
252 17-09-2020 20:55:00 15.3 C 8.1 g/m*3 15.3 C 0 km/h
253 17-09-2020 21:00:00 15.2 C 8.05 g/m*3 15.2 C 0 km/h
254 17-09-2020 21:05:00 15.1 C 8 g/m*3 15.1 C 0 km/h
255 17-09-2020 21:10:00 14.9 C 8.03 g/m*3 14.9 C 0 km/h
256 17-09-2020 21:15:00 14.8 C 7.98 g/m*3 14.8 C 0 km/h
257 17-09-2020 21:20:00 14.7 C 8.06 g/m*3 14.7 C 6.4 km/h
258 17-09-2020 21:25:00 14.6 C 8.13 g/m*3 14.6 C 1.6 km/h
259 17-09-2020 21:30:00 14.5 C 8.08 g/m*3 14.5 C 3.2 km/h
260 17-09-2020 21:35:00 14.6 C 8.13 g/m*3 14.6 C 0 km/h
261 17-09-2020 21:40:00 14.5 C 8.21 g/m*3 14.5 C 0 km/h
262 17-09-2020 21:45:00 14.4 C 8.16 g/m*3 14.4 C 1.6 km/h
263 17-09-2020 21:50:00 14.4 C 8.16 g/m*3 14.4 C 3.2 km/h
264 17-09-2020 21:55:00 14.6 C 8.13 g/m*3 14.6 C 3.2 km/h
265 17-09-2020 22:00:00 14.9 C 8.28 g/m*3 14.9 C 11.3 km/h
266 17-09-2020 22:05:00 15.2 C 8.31 g/m*3 15.2 C 0 km/h
267 17-09-2020 22:10:00 15.3 C 8.23 g/m*3 15.3 C 3.2 km/h
268 17-09-2020 22:15:00 15.2 C 8.31 g/m*3 15.2 C 1.6 km/h
269 17-09-2020 22:20:00 15.1 C 8.26 g/m*3 15.1 C 0 km/h
270 17-09-2020 22:25:00 14.8 C 8.23 g/m*3 14.8 C 0 km/h
271 17-09-2020 22:30:00 14.6 C 8.13 g/m*3 14.6 C 0 km/h
272 17-09-2020 22:35:00 14.3 C 8.23 g/m*3 14.3 C 0 km/h
273 17-09-2020 22:40:00 14.2 C 8.18 g/m*3 14.2 C 0 km/h
274 17-09-2020 22:45:00 14.2 C 8.18 g/m*3 14.2 C 6.4 km/h
275 17-09-2020 22:50:00 14.1 C 8.25 g/m*3 14.1 C 0 km/h
Sensor: Nr:Datum:Temp:Abs-Feuchte:Windchill:Wind:
Aussen-T/F 276 17-09-2020 22:55:00 14.1 C 8.25 g/m*3 14.1 C 1.6 km/h
277 17-09-2020 23:00:00 14 C 8.2 g/m*3 14 C 0 km/h
278 17-09-2020 23:05:00 13.9 C 8.15 g/m*3 13.9 C 0 km/h
279 17-09-2020 23:10:00 13.9 C 8.15 g/m*3 13.9 C 8.1 km/h
280 17-09-2020 23:15:00 13.9 C 8.15 g/m*3 13.9 C 1.6 km/h
281 17-09-2020 23:20:00 13.9 C 8.15 g/m*3 13.9 C 1.6 km/h
282 17-09-2020 23:25:00 13.8 C 8.22 g/m*3 13.8 C 0 km/h
283 17-09-2020 23:30:00 13.6 C 8.12 g/m*3 13.6 C 0 km/h
284 17-09-2020 23:35:00 13.4 C 8.14 g/m*3 13.4 C 0 km/h
285 17-09-2020 23:40:00 13.3 C 8.09 g/m*3 13.3 C 3.2 km/h
286 17-09-2020 23:45:00 13.2 C 8.15 g/m*3 13.2 C 3.2 km/h
287 17-09-2020 23:50:00 13.1 C 8.1 g/m*3 13.1 C 0 km/h
288 17-09-2020 23:55:00 12.9 C 8.11 g/m*3 12.9 C 0 km/h

Legende:
   Min
   Max


Maximal/Minimal-Werte vom 17.09.2020 - 17.09.2020

Sensor Min Max Avg
Temp
(Aussen-T/F)
12.9 °C
17-09-2020  23:55:00
22.3 °C
17-09-2020  17:35:00
17.94 °C
Abs-Feuchte
(Aussen-T/F)
6.95 g/m*3
17-09-2020  17:05:00
13.4 g/m*3
17-09-2020  00:05:00
9.64 g/m*3
Windchill
(Aussen-T/F)
12.9 C
17-09-2020  23:55:00
22.3 C
17-09-2020  17:35:00
17.88 C

Die Daten stammen von einer Davis Vantage Pro 2 Wetter-Station und werden unter Linux mit der Software wview2wettercgi und aufbereitet. Alle Angaben erfolgen ohne Gewähr für ihre Vollständigkeit oder Richtigkeit.
Kontakt: Rainer Krienke krienke@uni-koblenz.de . Meine Webseiten an der Uni Koblenz oder privat.
Version: $Revision: 0.78 $